User: anonymous   Login
Location: Aytr�
(46.1357°N, 1.1145°W)
Time: 22:18:13
(UTC+00:00)
Language:

FENGYUN 1C DEB - Orbit

View from above orbital plane
View from above orbital plane
View from above satellite
View from above satellite

Ground track
Ground track

The orbit data is extracted from the following two-line orbital elements,

1 30205U 99025VN  21335.38842185  .00000083  00000-0  10095-3 0  9997
2 30205  98.8222 133.0841 0122764 211.7244 181.5855 13.86448758752265
Epoch (UTC): 01 December 2021 09:19:19
Eccentricity: 0.0122764
inclination: 98.8222°
perigee height: 851 km
apogee height: 1031 km
right ascension of ascending node: 133.0841°
argument of perigee: 211.7244°
revolutions per day: 13.86448758
mean anomaly at epoch: 181.5855°
orbit number at epoch: 75226

The dashed part of the orbit path shows where the satellite is in the earth's shadow,  

DLR